When you browse on this site, cookies collect data to enhance your experience and personalize the content and advertising you see.
Visit our Privacy Policy to learn more. By continuing to use the site, you agree to this use of cookies and data.
  • în România
  • Lista ţărilor
  • Pe 7 zile
  • Temperatura apei
  • Meteo pe hartă
  • Widget-uri
  • user-avatar
    Intrare

    Meteo pe oră la Jalapa

    Astăzi, 22 August, Joi

    Timp Temperatura Precipitaţii Vânt Presiune Umiditate
    00:00 +19°C° 0.6 mm 1 m/s 642 mmHg 96%
    01:00 +19°C° 0.8 mm 1 m/s 642 mmHg 96%
    02:00 +16°C° 0.8 mm 0 m/s 642 mmHg 97%
    03:00 +16°C° 0.8 mm 0 m/s 642 mmHg 97%
    04:00 +16°C° 0.2 mm 0 m/s 642 mmHg 97%
    05:00 +18°C° 0.2 mm 1 m/s 642 mmHg 97%
    06:00 +18°C° 0.2 mm 1 m/s 642 mmHg 97%
    07:00 +19°C° 0 mm 1 m/s 642 mmHg 93%
    08:00 +21°C° 0 mm 1 m/s 643 mmHg 89%
    09:00 +23°C° 0 mm 1 m/s 644 mmHg 85%
    10:00 +24°C° 0.2 mm 1 m/s 644 mmHg 81%
    11:00 +25°C° 0.2 mm 1 m/s 644 mmHg 77%
    12:00 +26°C° 0.2 mm 1 m/s 644 mmHg 73%
    13:00 +26°C° 0.5 mm 1 m/s 643 mmHg 75%
    14:00 +25°C° 0.5 mm 1 m/s 643 mmHg 76%
    15:00 +25°C° 0.5 mm 1 m/s 642 mmHg 78%
    16:00 +24°C° 0.6 mm 1 m/s 642 mmHg 82%
    17:00 +21°C° 0.6 mm 0 m/s 642 mmHg 87%
    18:00 +20°C° 0.6 mm 0 m/s 641 mmHg 92%
    19:00 +19°C° 0.2 mm 0 m/s 641 mmHg 92%
    20:00 +18°C° 0.2 mm 0 m/s 642 mmHg 92%
    21:00 +19°C° 0.2 mm 1 m/s 642 mmHg 93%
    22:00 +19°C° 0 mm 1 m/s 642 mmHg 93%
    23:00 +16°C° 0 mm 0 m/s 642 mmHg 93%

    Mâine, 23 August, Vineri

    Timp Temperatura Precipitaţii Vânt Presiune Umiditate
    00:00 +16°C° 0 mm 0 m/s 641 mmHg 94%
    01:00 +16°C° 0 mm 0 m/s 641 mmHg 94%
    02:00 +18°C° 0 mm 1 m/s 641 mmHg 95%
    03:00 +16°C° 0 mm 1 m/s 641 mmHg 95%
    04:00 +16°C° 0 mm 1 m/s 641 mmHg 95%
    05:00 +15°C° 0 mm 0 m/s 641 mmHg 95%
    06:00 +15°C° 0 mm 0 m/s 641 mmHg 95%
    07:00 +19°C° 0 mm 1 m/s 642 mmHg 91%
    08:00 +21°C° 0 mm 1 m/s 643 mmHg 86%
    09:00 +23°C° 0 mm 1 m/s 644 mmHg 81%
    10:00 +25°C° 0.1 mm 1 m/s 644 mmHg 73%
    11:00 +26°C° 0.1 mm 1 m/s 644 mmHg 65%
    12:00 +28°C° 0.1 mm 1 m/s 644 mmHg 57%
    13:00 +27°C° 0 mm 1 m/s 644 mmHg 57%
    14:00 +27°C° 0 mm 1 m/s 643 mmHg 56%
    15:00 +27°C° 0 mm 1 m/s 643 mmHg 56%
    16:00 +25°C° 0.2 mm 1 m/s 642 mmHg 66%
    17:00 +24°C° 0.2 mm 1 m/s 642 mmHg 75%
    18:00 +20°C° 0.2 mm 0 m/s 641 mmHg 85%
    19:00 +21°C° 0 mm 1 m/s 641 mmHg 86%
    20:00 +20°C° 0 mm 1 m/s 642 mmHg 87%
    21:00 +19°C° 0 mm 1 m/s 642 mmHg 87%
    22:00 +19°C° 0 mm 1 m/s 642 mmHg 89%
    23:00 +18°C° 0 mm 1 m/s 642 mmHg 91%

    Poimâine, 24 August, Sâmbătă

    Timp Temperatura Precipitaţii Vânt Presiune Umiditate
    00:00 +18°C° 0 mm 1 m/s 642 mmHg 92%
    01:00 +18°C° 0 mm 1 m/s 641 mmHg 93%
    02:00 +16°C° 0 mm 1 m/s 641 mmHg 93%
    03:00 +16°C° 0 mm 1 m/s 641 mmHg 94%
    04:00 +16°C° 0 mm 1 m/s 641 mmHg 93%
    05:00 +16°C° 0 mm 1 m/s 641 mmHg 93%
    06:00 +16°C° 0 mm 1 m/s 641 mmHg 93%
    07:00 +19°C° 0 mm 1 m/s 642 mmHg 87%
    08:00 +21°C° 0 mm 1 m/s 643 mmHg 80%
    09:00 +23°C° 0 mm 1 m/s 644 mmHg 74%
    10:00 +25°C° 0 mm 1 m/s 644 mmHg 69%
    11:00 +26°C° 0 mm 1 m/s 644 mmHg 65%
    12:00 +27°C° 0 mm 1 m/s 644 mmHg 60%
    13:00 +27°C° 0.1 mm 2 m/s 644 mmHg 61%
    14:00 +27°C° 0.1 mm 2 m/s 643 mmHg 62%
    15:00 +27°C° 0.1 mm 2 m/s 643 mmHg 62%
    16:00 +25°C° 0.2 mm 1 m/s 642 mmHg 71%
    17:00 +24°C° 0.2 mm 1 m/s 642 mmHg 79%
    18:00 +22°C° 0.2 mm 1 m/s 641 mmHg 88%
    19:00 +21°C° 0 mm 1 m/s 641 mmHg 90%
    20:00 +20°C° 0 mm 1 m/s 642 mmHg 92%
    21:00 +19°C° 0 mm 1 m/s 642 mmHg 94%
    22:00 +19°C° 0 mm 1 m/s 642 mmHg 95%
    23:00 +18°C° 0 mm 1 m/s 641 mmHg 95%

    25 August, Duminică

    Timp Temperatura Precipitaţii Vânt Presiune Umiditate
    00:00 +18°C° 0 mm 1 m/s 641 mmHg 95%
    01:00 +18°C° 0 mm 1 m/s 641 mmHg 95%
    02:00 +16°C° 0 mm 1 m/s 640 mmHg 95%
    03:00 +16°C° 0 mm 1 m/s 640 mmHg 96%
    04:00 +16°C° 0 mm 1 m/s 640 mmHg 95%
    05:00 +16°C° 0 mm 1 m/s 640 mmHg 95%
    06:00 +16°C° 0 mm 1 m/s 640 mmHg 95%
    07:00 +19°C° 0 mm 1 m/s 641 mmHg 87%
    08:00 +21°C° 0 mm 1 m/s 642 mmHg 80%
    09:00 +23°C° 0 mm 1 m/s 643 mmHg 72%
    10:00 +25°C° 0 mm 1 m/s 643 mmHg 67%
    11:00 +26°C° 0 mm 1 m/s 643 mmHg 61%
    12:00 +27°C° 0 mm 1 m/s 644 mmHg 55%
    13:00 +27°C° 0.1 mm 1 m/s 643 mmHg 57%
    14:00 +27°C° 0.1 mm 1 m/s 642 mmHg 59%
    15:00 +27°C° 0.1 mm 1 m/s 642 mmHg 60%
    16:00 +25°C° 0.1 mm 1 m/s 641 mmHg 69%
    17:00 +23°C° 0.1 mm 1 m/s 641 mmHg 77%
    18:00 +20°C° 0.1 mm 0 m/s 640 mmHg 86%
    19:00 +19°C° 0 mm 0 m/s 641 mmHg 87%
    20:00 +18°C° 0 mm 0 m/s 641 mmHg 89%
    21:00 +17°C° 0 mm 0 m/s 641 mmHg 91%
    22:00 +19°C° 0 mm 1 m/s 641 mmHg 91%
    23:00 +18°C° 0 mm 1 m/s 641 mmHg 92%

    26 August, Luni

    Timp Temperatura Precipitaţii Vânt Presiune Umiditate
    00:00 +18°C° 0 mm 1 m/s 640 mmHg 92%
    01:00 +18°C° 0 mm 1 m/s 640 mmHg 93%
    02:00 +18°C° 0 mm 1 m/s 640 mmHg 93%
    03:00 +16°C° 0 mm 1 m/s 639 mmHg 93%
    04:00 +16°C° 0 mm 1 m/s 640 mmHg 93%
    05:00 +16°C° 0 mm 1 m/s 640 mmHg 93%
    06:00 +16°C° 0 mm 1 m/s 640 mmHg 93%
    07:00 +19°C° 0 mm 1 m/s 641 mmHg 86%
    08:00 +22°C° 0 mm 1 m/s 642 mmHg 79%
    09:00 +24°C° 0 mm 1 m/s 643 mmHg 72%
    10:00 +25°C° 0.3 mm 1 m/s 643 mmHg 71%
    11:00 +25°C° 0.3 mm 1 m/s 643 mmHg 70%
    12:00 +26°C° 0.3 mm 1 m/s 643 mmHg 69%
    13:00 +26°C° 0.9 mm 1 m/s 642 mmHg 69%
    14:00 +26°C° 0.9 mm 1 m/s 642 mmHg 69%
    15:00 +26°C° 0.9 mm 1 m/s 641 mmHg 69%
    16:00 +24°C° 0.4 mm 1 m/s 641 mmHg 77%
    17:00 +21°C° 0.4 mm 0 m/s 641 mmHg 84%
    18:00 +19°C° 0.4 mm 0 m/s 640 mmHg 92%
    19:00 +19°C° 0.5 mm 0 m/s 641 mmHg 92%
    20:00 +18°C° 0.5 mm 0 m/s 641 mmHg 93%
    21:00 +17°C° 0.5 mm 0 m/s 641 mmHg 93%
    22:00 +19°C° 1.4 mm 1 m/s 641 mmHg 94%
    23:00 +19°C° 1.4 mm 1 m/s 641 mmHg 95%

    27 August, Marţi

    Timp Temperatura Precipitaţii Vânt Presiune Umiditate
    00:00 +19°C° 1.4 mm 1 m/s 641 mmHg 96%
    01:00 +19°C° 0.2 mm 1 m/s 641 mmHg 95%
    02:00 +18°C° 0.2 mm 1 m/s 641 mmHg 94%
    03:00 +18°C° 0.2 mm 1 m/s 640 mmHg 93%
    04:00 +18°C° 0 mm 1 m/s 640 mmHg 93%
    05:00 +18°C° 0 mm 1 m/s 640 mmHg 93%
    06:00 +18°C° 0 mm 1 m/s 640 mmHg 92%
    07:00 +19°C° 0 mm 1 m/s 641 mmHg 88%
    08:00 +21°C° 0 mm 1 m/s 642 mmHg 83%
    09:00 +23°C° 0 mm 1 m/s 643 mmHg 78%
    10:00 +24°C° 0 mm 1 m/s 643 mmHg 73%
    11:00 +26°C° 0 mm 1 m/s 643 mmHg 68%
    12:00 +27°C° 0 mm 1 m/s 643 mmHg 63%
    13:00 +27°C° 0.5 mm 1 m/s 643 mmHg 66%
    14:00 +26°C° 0.5 mm 1 m/s 642 mmHg 69%
    15:00 +26°C° 0.5 mm 1 m/s 642 mmHg 72%
    16:00 +24°C° 0.7 mm 1 m/s 642 mmHg 78%
    17:00 +23°C° 0.7 mm 1 m/s 641 mmHg 84%
    18:00 +19°C° 0.7 mm 0 m/s 641 mmHg 90%
    19:00 +21°C° 0.3 mm 1 m/s 641 mmHg 91%
    20:00 +20°C° 0.3 mm 1 m/s 642 mmHg 92%
    21:00 +19°C° 0.3 mm 1 m/s 642 mmHg 94%
    22:00 +19°C° 0 mm 1 m/s 642 mmHg 94%
    23:00 +18°C° 0 mm 1 m/s 642 mmHg 95%
    Arată mai mult